Weather History for PASX - November, 2012

Change the Weather History Date:

Saturday, November 17, 2012

  Actual Average Record
Temperature  
Mean Temperature 2 °F -  
Max Temperature 15 °F 28 °F 43 °F (1957)
Min Temperature -11 °F 13 °F -17 °F (1956)
Degree Days  
Heating Degree Days 63    
Moisture  
Dew Point -2 °F    
Average Humidity 87    
Maximum Humidity 100    
Minimum Humidity 65    
Precipitation  
Precipitation 0.00 in - - ()
Sea Level Pressure  
Sea Level Pressure 29.25 in    
Wind  
Wind Speed 3 mph (East)    
Max Wind Speed 8 mph    
Max Gust Speed -    
Visibility 10 miles    
Events      
Averages and records for this station are not official NWS values.
T = Trace of Precipitation, MM = Missing Value Source: NWS Daily Summary

Daily Weather History Graph

Daily Weather History Graph

Search for Another Location

Airport or City:

Trip Planner

Search our weather history database for the weather conditions in past years. The results will help you decide how hot, cold, wet, or windy it might be!

Date:

Astronomy

Nov. 17, 2012 Rise Set
Actual Time 9:12 AM AKST 4:25 PM AKST
Civil Twilight 8:21 AM AKST 5:16 PM AKST
Nautical Twilight 7:27 AM AKST 6:09 PM AKST
Astronomical Twilight 6:37 AM AKST 6:59 PM AKST
Moon 1:01 PM AKST (11/17) 8:55 PM AKST (11/17)
Length of Visible Light 8h 55m
Length of Day
7h 13m
Waxing Crescent, 21% of the Moon is Illuminated
Nov 17
Waxing Crescent
Nov 20
First Quarter
Nov 28
Full
Dec 6
Last Quarter
Dec 12
New

Hourly Weather History & Observations

Time (AKST) Temp. Windchill Dew Point Humidity Pressure Visibility Wind Dir Wind Speed Gust Speed Precip Events Conditions
12:16 AM -2.2 °F -10.4 °F -2.2 °F 100% 29.47 in 10.0 mi East 3.5 mph - N/A   Clear
12:36 AM -2.2 °F -10.4 °F -7.6 °F 78% 29.47 in 10.0 mi ENE 3.5 mph - N/A   Clear
12:56 AM -5.8 °F - -9.4 °F 84% 29.46 in 10.0 mi Calm Calm - N/A   Clear
1:16 AM -5.8 °F - -5.8 °F 100% 29.46 in 10.0 mi Calm Calm - N/A   Clear
1:36 AM -5.8 °F -16.7 °F -9.4 °F 84% 29.45 in 10.0 mi ENE 4.6 mph - N/A   Clear
1:56 AM -4.0 °F -12.4 °F -7.6 °F 85% 29.44 in 10.0 mi ENE 3.5 mph - N/A   Clear
2:16 AM -5.8 °F -16.7 °F -7.6 °F 92% 29.44 in 10.0 mi ENE 4.6 mph - N/A   Clear
2:36 AM -4.0 °F - -7.6 °F 85% 29.43 in 10.0 mi Calm Calm - N/A   Clear
2:56 AM -5.8 °F - -7.6 °F 92% 29.43 in 10.0 mi Calm Calm - N/A   Clear
3:16 AM -9.4 °F - -14.8 °F 77% 29.43 in 10.0 mi Calm Calm - N/A   Clear
3:36 AM -5.8 °F -19.9 °F -9.4 °F 84% 29.42 in 10.0 mi ENE 6.9 mph - N/A   Clear
3:56 AM -5.8 °F -14.5 °F -5.8 °F 100% 29.41 in 10.0 mi ENE 3.5 mph - N/A   Clear
4:16 AM -9.4 °F - -16.6 °F 71% 29.41 in 10.0 mi Calm Calm - N/A   Clear
4:36 AM -7.6 °F -22.1 °F -7.6 °F 100% 29.40 in 10.0 mi ENE 6.9 mph - N/A   Clear
4:56 AM -9.4 °F -18.6 °F -14.8 °F 77% 29.39 in 10.0 mi ENE 3.5 mph - N/A   Clear
5:16 AM -7.6 °F -16.5 °F -9.4 °F 92% 29.39 in 10.0 mi ENE 3.5 mph - N/A   Clear
5:36 AM -9.4 °F - -18.4 °F 65% 29.38 in 10.0 mi Calm Calm - N/A   Clear
5:56 AM -11.2 °F -23.0 °F -11.2 °F 100% 29.37 in 10.0 mi ENE 4.6 mph - N/A   Clear
6:16 AM -9.4 °F - -14.8 °F 77% 29.37 in 10.0 mi Calm Calm - N/A   Clear
6:36 AM -9.4 °F -20.9 °F -11.2 °F 92% 29.36 in 10.0 mi East 4.6 mph - N/A   Clear
6:56 AM -7.6 °F -16.5 °F -7.6 °F 100% 29.35 in 10.0 mi ENE 3.5 mph - N/A   Clear
7:16 AM -7.6 °F - -14.8 °F 71% 29.34 in 10.0 mi Calm Calm - N/A   Clear
7:36 AM -9.4 °F -18.6 °F -14.8 °F 77% 29.33 in 10.0 mi East 3.5 mph - N/A   Clear
7:56 AM -9.4 °F -18.6 °F -14.8 °F 77% 29.32 in 10.0 mi ENE 3.5 mph - N/A   Clear
8:16 AM -11.2 °F - -11.2 °F 100% 29.32 in 10.0 mi Calm Calm - N/A   Clear
8:36 AM -11.2 °F -20.6 °F -18.4 °F 70% 29.32 in 10.0 mi ENE 3.5 mph - N/A   Clear
8:56 AM -9.4 °F -18.6 °F -9.4 °F 100% 29.31 in 10.0 mi East 3.5 mph - N/A   Clear
9:16 AM -7.6 °F -16.5 °F -13.0 °F 77% 29.30 in 10.0 mi ENE 3.5 mph - N/A   Partly Cloudy
9:36 AM -7.6 °F -18.8 °F -7.6 °F 100% 29.30 in 10.0 mi ENE 4.6 mph - N/A   Clear
9:56 AM -7.6 °F -18.8 °F -11.2 °F 84% 29.30 in 10.0 mi ENE 4.6 mph - N/A   Clear
10:16 AM -9.4 °F -18.6 °F -14.8 °F 77% 29.29 in 10.0 mi ENE 3.5 mph - N/A   Scattered Clouds
10:36 AM -7.6 °F -16.5 °F -9.4 °F 92% 29.28 in 10.0 mi ENE 3.5 mph - N/A   Partly Cloudy
10:56 AM -5.8 °F -14.5 °F -7.6 °F 92% 29.27 in 10.0 mi ENE 3.5 mph - N/A   Clear
11:16 AM -4.0 °F - -7.6 °F 85% 29.27 in 10.0 mi Calm Calm - N/A   Clear
11:36 AM -2.2 °F - -2.2 °F 100% 29.26 in 10.0 mi Calm Calm - N/A   Scattered Clouds
11:56 AM -0.4 °F - -0.4 °F 100% 29.25 in 9.0 mi Calm Calm - N/A   Mostly Cloudy
12:16 PM 1.4 °F - -0.4 °F 92% 29.25 in 10.0 mi Calm Calm - N/A   Overcast
12:36 PM 3.2 °F - 3.2 °F 100% 29.23 in 10.0 mi Calm Calm - N/A   Overcast
12:56 PM 6.8 °F - 3.2 °F 85% 29.23 in 10.0 mi Calm Calm - N/A   Overcast
1:16 PM 6.8 °F - 5.0 °F 92% 29.22 in 10.0 mi Calm Calm - N/A   Overcast
1:36 PM 8.6 °F 2.0 °F 5.0 °F 85% 29.21 in 10.0 mi East 3.5 mph - N/A   Overcast
1:56 PM 10.4 °F 4.0 °F 6.8 °F 85% 29.20 in 9.0 mi ESE 3.5 mph - N/A   Overcast
2:16 PM 10.4 °F 4.0 °F 6.8 °F 85% 29.19 in 10.0 mi East 3.5 mph - N/A   Overcast
2:36 PM 12.2 °F 2.9 °F 10.4 °F 92% 29.19 in 10.0 mi ESE 5.8 mph - N/A   Overcast
2:56 PM 12.2 °F 2.9 °F 10.4 °F 92% 29.18 in 10.0 mi ESE 5.8 mph - N/A   Overcast
3:16 PM 12.2 °F 2.9 °F 10.4 °F 92% 29.17 in 10.0 mi ESE 5.8 mph - N/A   Overcast
3:36 PM 12.2 °F 4.3 °F 8.6 °F 85% 29.16 in 10.0 mi ESE 4.6 mph - N/A   Overcast
3:56 PM 10.4 °F 0.8 °F 6.8 °F 85% 29.16 in 10.0 mi ESE 5.8 mph - N/A   Overcast
4:16 PM 12.2 °F 4.3 °F 8.6 °F 85% 29.15 in 10.0 mi ESE 4.6 mph - N/A   Overcast
4:36 PM 10.4 °F - 6.8 °F 85% 29.14 in 10.0 mi Calm Calm - N/A   Overcast
4:56 PM 6.8 °F - 3.2 °F 85% 29.14 in 10.0 mi Calm Calm - N/A   Mostly Cloudy
5:16 PM 3.2 °F - -0.4 °F 85% 29.13 in 10.0 mi Calm Calm - N/A   Mostly Cloudy
5:36 PM 3.2 °F -4.2 °F -2.2 °F 78% 29.13 in 10.0 mi ENE 3.5 mph - N/A   Overcast
5:56 PM 6.8 °F - 5.0 °F 92% 29.12 in 10.0 mi Calm Calm - N/A   Overcast
6:16 PM 6.8 °F - 3.2 °F 85% 29.12 in 10.0 mi Calm Calm - N/A   Overcast
6:36 PM 6.8 °F - 5.0 °F 92% 29.11 in 10.0 mi Calm Calm - N/A   Overcast
6:56 PM 8.6 °F 2.0 °F 5.0 °F 85% 29.11 in 10.0 mi East 3.5 mph - N/A   Overcast
7:16 PM 8.6 °F - 6.8 °F 92% 29.10 in 10.0 mi Calm Calm - N/A   Overcast
7:36 PM 8.6 °F - 5.0 °F 85% 29.10 in 10.0 mi Calm Calm - N/A   Overcast
7:56 PM 8.6 °F - 6.8 °F 92% 29.10 in 10.0 mi Calm Calm - N/A   Overcast
8:16 PM 10.4 °F 4.0 °F 6.8 °F 85% 29.09 in 10.0 mi East 3.5 mph - N/A   Overcast
8:36 PM 10.4 °F 4.0 °F 6.8 °F 85% 29.09 in 10.0 mi ESE 3.5 mph - N/A   Overcast
8:56 PM 12.2 °F 2.9 °F 8.6 °F 85% 29.09 in 10.0 mi East 5.8 mph - N/A   Overcast
9:16 PM 12.2 °F 0.7 °F 8.6 °F 85% 29.09 in 10.0 mi East 8.1 mph - N/A   Overcast
9:36 PM 12.2 °F 2.9 °F 8.6 °F 85% 29.09 in 10.0 mi East 5.8 mph - N/A   Mostly Cloudy
9:56 PM 12.2 °F 2.9 °F 10.4 °F 92% 29.09 in 1.8 mi East 5.8 mph - N/A   Overcast
10:16 PM 15.8 °F 6.1 °F 12.2 °F 86% 29.09 in 2.5 mi NE 6.9 mph - N/A   Overcast
10:36 PM 15.8 °F 7.2 °F 12.2 °F 86% 29.09 in 10.0 mi NE 5.8 mph - N/A   Overcast
10:56 PM 15.8 °F 6.1 °F 10.4 °F 79% 29.08 in 10.0 mi NE 6.9 mph - N/A   Overcast
11:16 PM 15.8 °F 6.1 °F 8.6 °F 73% 29.08 in 10.0 mi ENE 6.9 mph - N/A   Overcast
11:36 PM 15.8 °F 7.2 °F 6.8 °F 68% 29.08 in 10.0 mi East 5.8 mph - N/A   Overcast
11:56 PM 15.8 °F 10.2 °F 8.6 °F 73% 29.08 in 10.0 mi ENE 3.5 mph - N/A   Overcast